This is the latest recevied weather packets stored in our database for station/object EA4URC-10. If no packets are shown the sender has not sent any weather packets the latest 10 day(s).
| Time | Temp. | Humidity | Pressure | Rain* | Wind** | Luminosity | Snow |
|---|---|---|---|---|---|---|---|
| 1777538002 | 15° C | 100% | 1032.4 hPa | - | - | - | - |
| 1777536201 | 13.33° C | 100% | 1032.1 hPa | - | - | - | - |
| 1777534401 | 12.78° C | 100% | 1031.9 hPa | - | - | - | - |
| 1777532600 | 11.11° C | 100% | 1031.7 hPa | - | - | - | - |
| 1777531254 | 10.56° C | 100% | 1031.4 hPa | - | - | - | - |
| 1777530805 | 10.56° C | 100% | 1031.4 hPa | - | - | - | - |
| 1777528999 | 8.89° C | 100% | 1031.2 hPa | - | - | - | - |
| 1777527198 | 8.89° C | 100% | 1030.9 hPa | - | - | - | - |
| 1777525398 | 8.89° C | 100% | 1030.7 hPa | - | - | - | - |
| 1777523597 | 8.89° C | 100% | 1030.6 hPa | - | - | - | - |
| 1777521796 | 9.44° C | 100% | 1030.3 hPa | - | - | - | - |
| 1777519996 | 9.44° C | 100% | 1030.4 hPa | - | - | - | - |
| 1777518196 | 9.44° C | 100% | 1030.3 hPa | - | - | - | - |
| 1777516401 | 9.44° C | 100% | 1030.3 hPa | - | - | - | - |
| 1777514601 | 9.44° C | 100% | 1030.3 hPa | - | - | - | - |
| 1777512800 | 10° C | 100% | 1030.2 hPa | - | - | - | - |
| 1777511000 | 10° C | 100% | 1030.1 hPa | - | - | - | - |
| 1777509241 | 10° C | 100% | 1030.1 hPa | - | - | - | - |
| 1777509199 | 10° C | 100% | 1030.1 hPa | - | - | - | - |
| 1777507398 | 10° C | 100% | 1030 hPa | - | - | - | - |
| 1777505598 | 9.44° C | 100% | 1030 hPa | - | - | - | - |
| 1777503797 | 9.44° C | 100% | 1029.9 hPa | - | - | - | - |
| 1777501997 | 10° C | 100% | 1029.8 hPa | - | - | - | - |
| 1777500196 | 9.44° C | 100% | 1029.8 hPa | - | - | - | - |
| 1777498396 | 10.56° C | 100% | 1029.8 hPa | - | - | - | - |
* Rain since midnight (hover to see other rain measurements)
** Current wind speed in m/s (hover to see current wind gust speed)